Weather History for KISP - August, 2013

Change the Weather History Date:

Monday, August 19, 2013

  Actual Average Record
Temperature  
Mean Temperature 71 °F 73 °F  
Max Temperature 81 °F 80 °F 91 °F (2002)
Min Temperature 61 °F 65 °F 58 °F (1988)
Degree Days  
Heating Degree Days 0 0  
Month to date heating degree days 0 0  
Since 1 June heating degree days 12 40  
Since 1 July heating degree days 0 2  
Cooling Degree Days 6 8  
Month to date cooling degree days 127 164  
Year to date cooling degree days 737 604  
Since 1 June cooling degree days 705 580  
Growing Degree Days 20 (Base 50)    
Moisture  
Dew Point 59 °F    
Average Humidity 66    
Maximum Humidity 84    
Minimum Humidity 48    
Precipitation  
Precipitation T in 0.14 in 5.91 in (1991)
Month to date precipitation 1.96 2.48  
Year to date precipitation 27.80 29.64  
Snow  
Snow 0.00 in 0.00 in - ()
Month to date snowfall 0.0 0.0  
Since 1 July snowfall 0.0 0.0  
Snow Depth 0.00 in    
Sea Level Pressure  
Sea Level Pressure 30.06 in    
Wind  
Wind Speed 6 mph (WSW)    
Max Wind Speed 13 mph    
Max Gust Speed 17 mph    
Visibility 10 miles    
Events      
T = Trace of Precipitation, MM = Missing Value Source: NWS Daily Summary

Daily Weather History Graph

Daily Weather History Graph

Search for Another Location

Airport or City:

Trip Planner

Search our weather history database for the weather conditions in past years. The results will help you decide how hot, cold, wet, or windy it might be!

Date:

Astronomy

Aug. 19, 2013 Rise Set
Actual Time 6:06 AM EDT 7:44 PM EDT
Civil Twilight 5:37 AM EDT 8:13 PM EDT
Nautical Twilight 5:02 AM EDT 8:48 PM EDT
Astronomical Twilight 4:24 AM EDT 9:25 PM EDT
Moon 6:33 PM EDT (8/19) 4:22 AM EDT (8/19)
Length of Visible Light 14h 35m
Length of Day
13h 37m
Waxing Gibbous, 97% of the Moon is Illuminated
Aug 19
Waxing Gibbous
Aug 20
Full
Aug 28
Last Quarter
Sep 5
New
Sep 12
First Quarter

Hourly Weather History & Observations

Time (EDT) Temp. Heat Index Dew Point Humidity Pressure Visibility Wind Dir Wind Speed Gust Speed Precip Events Conditions
12:56 AM 61.0 °F - 55.0 °F 81% 30.11 in 10.0 mi Calm Calm - N/A   Clear
1:56 AM 61.0 °F - 54.0 °F 78% 30.11 in 10.0 mi West 3.5 mph - N/A   Clear
2:56 AM 61.0 °F - 55.9 °F 83% 30.10 in 10.0 mi WSW 4.6 mph - N/A   Clear
3:56 AM 62.1 °F - 57.9 °F 86% 30.09 in 10.0 mi West 4.6 mph - N/A   Clear
4:56 AM 62.1 °F - 57.9 °F 86% 30.09 in 10.0 mi WSW 6.9 mph - N/A   Clear
5:56 AM 63.0 °F - 57.9 °F 84% 30.10 in 10.0 mi West 4.6 mph - N/A   Mostly Cloudy
6:56 AM 64.0 °F - 59.0 °F 84% 30.10 in 10.0 mi West 4.6 mph - N/A   Mostly Cloudy
7:56 AM 64.9 °F - 59.0 °F 81% 30.10 in 10.0 mi West 5.8 mph - N/A   Mostly Cloudy
8:56 AM 70.0 °F - 60.1 °F 71% 30.09 in 10.0 mi West 5.8 mph - N/A   Mostly Cloudy
9:56 AM 75.9 °F - 62.1 °F 62% 30.07 in 10.0 mi WNW 4.6 mph - N/A   Mostly Cloudy
10:56 AM 80.1 °F 80.9 °F 60.1 °F 50% 30.06 in 10.0 mi WNW 8.1 mph - N/A   Mostly Cloudy
11:56 AM 80.1 °F 80.7 °F 59.0 °F 48% 30.05 in 10.0 mi WNW 5.8 mph - N/A   Mostly Cloudy
12:56 PM 79.0 °F - 57.9 °F 48% 30.04 in 10.0 mi WNW 8.1 mph - N/A   Overcast
1:56 PM 79.0 °F - 57.9 °F 48% 30.03 in 10.0 mi WNW 8.1 mph - N/A   Overcast
2:56 PM 77.0 °F - 63.0 °F 62% 30.02 in 10.0 mi SW 10.4 mph - N/A   Overcast
3:56 PM 75.9 °F - 62.1 °F 62% 30.02 in 10.0 mi SW 9.2 mph - N/A   Overcast
4:56 PM 75.9 °F - 60.1 °F 58% 30.03 in 10.0 mi SW 9.2 mph - N/A   Overcast
5:56 PM 75.0 °F - 61.0 °F 62% 30.03 in 10.0 mi SSW 8.1 mph - 0.00 in   Mostly Cloudy
6:56 PM 73.0 °F - 60.1 °F 64% 30.03 in 10.0 mi SW 6.9 mph - N/A   Mostly Cloudy
7:56 PM 72.0 °F - 59.0 °F 64% 30.02 in 10.0 mi SW 5.8 mph - N/A   Mostly Cloudy
8:56 PM 70.0 °F - 59.0 °F 68% 30.03 in 10.0 mi WSW 4.6 mph - N/A   Mostly Cloudy
9:56 PM 69.1 °F - 59.0 °F 70% 30.04 in 10.0 mi Calm Calm - N/A   Mostly Cloudy
10:56 PM 68.0 °F - 60.1 °F 76% 30.04 in 10.0 mi West 3.5 mph - N/A   Scattered Clouds
11:56 PM 66.9 °F - 60.1 °F 79% 30.04 in 10.0 mi SW 3.5 mph - N/A   Partly Cloudy